Showing default

BRO-5, 51061

Orbit data source: Space-Track

BRO-5, 51061 is a payload satellite owned by Unseen Labs (FR) in SSO that was launched on Thu, 13 Jan 2022 UTC via an FALCON 9 launch vehicle from the Air Force Eastern Test Range (AFETR). Payload-class satellites include a variety of spacecraft equipped with specific instruments for various scientific and technological missions. These include communications satellites like Starlink; space stations such as the ISS; scientific satellites like the Hubble; Earth observation satellites from companies like Planet Labs, Umbra, and HawkEye 360; GPS; miniature CubeSats for education and research; and military/defense satellites.

Loading next visibility...
Identifier
51061, 2022-002CF
Orbit
SSO
Country
Flag of FRFR
Related business
Manufacturer
GOMSpace
Mission
Operational Commercial Sigint
Bus & Motor
CUBESAT 6U, Unknown motor
Mass
10 kg wet, ~10 kg dry
Launch date (UTC)
2022-01-13 (4 years ago)
Launch vehicle
FALCON 9
Launch site
Air Force Eastern Test Range (AFETR)
Object type
Payload
Rocket body
Debris
Shape & HBR
Box, 0.1 m
Radar Cross Section
0.080 m², Medium (>0.1 m² and < 1m²)

Expand to show TLE details & history
Last TLE update: 5 days ago

TLE from 5 days ago
0 BRO-5
1 51061U 22002CF  26155.24965480  .00031893  00000-0  63980-3 0  9999
2 51061  97.2999 228.8112 0004823  28.6435 331.5079 15.46625363244255
Epoch: 2026-06-04T05:59Z
TLE epoch observation values (Epoch: 2026-06-04T05:59:30.174Z)
Latitude
-0.00003°
Longitude
-113.76115°
Altitude
426.851 km
Speed
7.657 km/s
True Right ascension
15h 15m 14s
True Declination
0° 00' 00"
Sunlit
Object was in full shadow at epoch
Visualization orbit readout
Latitude
Unknown
Longitude
Unknown
Altitude
Unknown
Speed
Unknown
Apparent Right ascension
Unknown
Apparent Declination
Unknown
Sunlit
N/A
Visualization observer readout
Local Sidereal Time
16:26:00
Azimuth
Unknown
Elevation
Unknown
Doppler factor
Unknown
Orbital elements
Apogee altitude
426.813 km
Perigee altitude
420.252 km
Semi-major axis
6,801.669 km
Eccentricity
0.00048
Inclination
97.2999°
RAAN
228.8112°
Arg. of periapsis
28.6435°
True anomaly
331.48152°
Mean anomaly
331.5079°
Eccentric anomaly
331.49471°
Mean motion
3.86919 °/min
Orbital period
93.04 mins
BSTAR
0.0006398
Loading maneuver chart data...
Computing Atmospheric mass density...

Documentation

Showing up to 5 results
|